Time,TemperatureF,DewpointF,PressureIn,WindDirection,WindDirectionDegrees,WindSpeedMPH,WindSpeedGustMPH,Humidity,HourlyPrecipIn,Conditions,Clouds,dailyrainin,SoftwareType,DateUTC
2013-04-05 00:01:00,47.0,46.0,30.18,WNW,291,0.0,-999.0,97,-99.99,,,-99.99,,2013-04-05 07:01:00,
2013-04-05 00:11:00,47.0,46.0,30.18,WNW,291,0.0,-999.0,97,-99.99,,,-99.99,,2013-04-05 07:11:00,
2013-04-05 00:22:00,47.0,46.0,30.19,SSE,158,1.0,-999.0,97,-99.99,,,-99.99,,2013-04-05 07:22:00,
2013-04-05 00:31:00,47.0,46.0,30.19,SSE,159,0.0,-999.0,97,-99.99,,,-99.99,,2013-04-05 07:31:00,
2013-04-05 00:42:00,47.0,46.0,30.19,SSE,159,0.0,-999.0,97,-99.99,,,-99.99,,2013-04-05 07:42:00,
2013-04-05 00:52:00,48.0,47.0,30.19,WSW,246,1.0,-999.0,97,-99.99,,,-99.99,,2013-04-05 07:52:00,
2013-04-05 01:02:00,48.0,47.0,30.19,SSW,205,1.0,-999.0,97,-99.99,,,-99.99,,2013-04-05 08:02:00,
2013-04-05 01:12:00,48.0,47.0,30.19,SSW,205,1.0,-999.0,97,-99.99,,,-99.99,,2013-04-05 08:12:00,
2013-04-05 01:22:00,48.0,47.0,30.19,South,186,1.0,-999.0,97,-99.99,,,-99.99,,2013-04-05 08:22:00,
2013-04-05 01:32:00,48.0,47.0,30.19,South,186,1.0,-999.0,97,-99.99,,,-99.99,,2013-04-05 08:32:00,
2013-04-05 01:42:00,48.0,47.0,30.19,South,186,1.0,-999.0,97,-99.99,,,-99.99,,2013-04-05 08:42:00,
2013-04-05 01:52:00,47.0,46.0,30.19,South,176,0.0,4.0,97,-99.99,,,-99.99,,2013-04-05 08:52:00,
2013-04-05 02:01:00,47.0,46.0,30.19,SE,138,0.0,4.0,97,-99.99,,,-99.99,,2013-04-05 09:01:00,
2013-04-05 02:12:00,47.0,46.0,30.19,SE,138,0.0,4.0,97,-99.99,,,-99.99,,2013-04-05 09:12:00,
2013-04-05 02:22:00,47.0,46.0,30.19,SW,234,1.0,4.0,97,-99.99,,,-99.99,,2013-04-05 09:22:00,
2013-04-05 02:32:00,48.0,47.0,30.19,SSW,197,2.0,6.0,97,-99.99,,,-99.99,,2013-04-05 09:32:00,
2013-04-05 02:42:00,48.0,47.0,30.19,SSW,197,2.0,6.0,97,-99.99,,,-99.99,,2013-04-05 09:42:00,
2013-04-05 02:52:00,48.0,47.0,30.19,South,180,1.0,3.0,97,-99.99,,,-99.99,,2013-04-05 09:52:00,
2013-04-05 03:02:00,48.0,47.0,30.19,South,172,0.0,5.0,97,-99.99,,,-99.99,,2013-04-05 10:02:00,
2013-04-05 03:12:00,48.0,47.0,30.19,South,172,0.0,5.0,97,-99.99,,,-99.99,,2013-04-05 10:12:00,
2013-04-05 03:23:00,48.0,47.0,30.19,South,173,0.0,4.0,97,0.03,,,-99.99,,2013-04-05 10:23:00,
2013-04-05 03:32:00,47.0,46.0,30.19,SSE,167,0.0,1.0,97,0.03,,,-99.99,,2013-04-05 10:32:00,
2013-04-05 03:42:00,47.0,46.0,30.19,SSE,167,0.0,1.0,97,0.03,,,-99.99,,2013-04-05 10:42:00,
2013-04-05 03:52:00,47.0,46.0,30.20,SSE,166,0.0,1.0,97,0.05,,,-99.99,,2013-04-05 10:52:00,
2013-04-05 04:02:00,47.0,46.0,30.20,SE,130,1.0,6.0,97,0.07,,,-99.99,,2013-04-05 11:02:00,
2013-04-05 04:12:00,47.0,46.0,30.20,SE,130,1.0,6.0,97,0.07,,,-99.99,,2013-04-05 11:12:00,
2013-04-05 04:21:00,47.0,46.0,30.19,South,182,0.0,3.0,97,0.06,,,-99.99,,2013-04-05 11:21:00,
2013-04-05 04:32:00,47.0,46.0,30.19,South,177,0.0,4.0,97,0.05,,,-99.99,,2013-04-05 11:32:00,
2013-04-05 04:42:00,47.0,46.0,30.19,South,177,0.0,4.0,97,0.05,,,-99.99,,2013-04-05 11:42:00,
2013-04-05 04:52:00,47.0,46.0,30.19,SSE,153,0.0,3.0,97,0.02,,,-99.99,,2013-04-05 11:52:00,
2013-04-05 05:01:00,47.0,46.0,30.19,SSE,154,0.0,1.0,97,0.00,,,-99.99,,2013-04-05 12:01:00,
2013-04-05 05:11:00,47.0,46.0,30.19,SSE,154,0.0,1.0,97,0.00,,,-99.99,,2013-04-05 12:11:00,
2013-04-05 05:22:00,47.0,46.0,30.19,ENE,71,0.0,-999.0,97,-99.99,,,-99.99,,2013-04-05 12:22:00,
2013-04-05 05:32:00,47.0,46.0,30.19,ENE,71,0.0,-999.0,97,-99.99,,,-99.99,,2013-04-05 12:32:00,
2013-04-05 05:42:00,47.0,46.0,30.19,ENE,71,0.0,-999.0,97,-99.99,,,-99.99,,2013-04-05 12:42:00,
2013-04-05 05:52:00,47.0,46.0,30.19,ENE,71,0.0,-999.0,97,-99.99,,,-99.99,,2013-04-05 12:52:00,
2013-04-05 06:01:00,47.0,46.0,30.19,ENE,71,0.0,-999.0,97,-99.99,,,-99.99,,2013-04-05 13:01:00,
2013-04-05 06:11:00,47.0,46.0,30.19,ENE,71,0.0,-999.0,97,-99.99,,,-99.99,,2013-04-05 13:11:00,
2013-04-05 06:21:00,47.0,46.0,30.19,ENE,71,0.0,-999.0,97,-99.99,,,-99.99,,2013-04-05 13:21:00,
2013-04-05 06:32:00,46.0,45.0,30.19,ENE,71,0.0,-999.0,97,-99.99,,,-99.99,,2013-04-05 13:32:00,
2013-04-05 06:42:00,46.0,45.0,30.19,ENE,71,0.0,-999.0,97,-99.99,,,-99.99,,2013-04-05 13:42:00,
2013-04-05 06:52:00,46.0,45.0,30.19,ENE,61,0.0,-999.0,97,-99.99,,,-99.99,,2013-04-05 13:52:00,
2013-04-05 07:01:00,46.0,45.0,30.19,ENE,61,0.0,-999.0,97,-99.99,,,-99.99,,2013-04-05 14:01:00,
2013-04-05 07:12:00,46.0,45.0,30.19,ENE,61,0.0,-999.0,97,-99.99,,,-99.99,,2013-04-05 14:12:00,
2013-04-05 07:22:00,46.0,45.0,30.19,ENE,61,0.0,-999.0,97,-99.99,,,-99.99,,2013-04-05 14:22:00,
2013-04-05 07:33:00,46.0,45.0,30.19,ENE,61,0.0,-999.0,97,-99.99,,,-99.99,,2013-04-05 14:33:00,
2013-04-05 07:42:00,46.0,45.0,30.19,ENE,61,0.0,-999.0,97,-99.99,,,-99.99,,2013-04-05 14:42:00,
2013-04-05 07:52:00,46.0,45.0,30.20,ENE,61,0.0,-999.0,97,-99.99,,,-99.99,,2013-04-05 14:52:00,
2013-04-05 08:01:00,46.0,45.0,30.21,ENE,61,0.0,-999.0,97,-99.99,,,-99.99,,2013-04-05 15:01:00,
2013-04-05 08:11:00,46.0,45.0,30.21,ENE,61,0.0,-999.0,97,-99.99,,,-99.99,,2013-04-05 15:11:00,
2013-04-05 08:22:00,46.0,45.0,30.22,ENE,61,0.0,-999.0,98,-99.99,,,-99.99,,2013-04-05 15:22:00,
2013-04-05 08:32:00,46.0,45.0,30.22,ENE,61,0.0,-999.0,98,-99.99,,,-99.99,,2013-04-05 15:32:00,
2013-04-05 08:42:00,46.0,45.0,30.22,ENE,61,0.0,-999.0,98,-99.99,,,-99.99,,2013-04-05 15:42:00,
2013-04-05 08:53:00,47.0,46.0,30.22,ENE,61,0.0,-999.0,98,-99.99,,,-99.99,,2013-04-05 15:53:00,
2013-04-05 09:02:00,47.0,46.0,30.22,ENE,61,0.0,-999.0,98,-99.99,,,-99.99,,2013-04-05 16:02:00,
2013-04-05 09:12:00,47.0,46.0,30.22,ENE,61,0.0,-999.0,98,-99.99,,,-99.99,,2013-04-05 16:12:00,
2013-04-05 09:22:00,47.0,46.0,30.22,South,181,0.0,-999.0,98,-99.99,,,-99.99,,2013-04-05 16:22:00,
2013-04-05 09:32:00,47.0,46.0,30.22,South,182,0.0,-999.0,98,-99.99,,,-99.99,,2013-04-05 16:32:00,
2013-04-05 09:41:00,47.0,46.0,30.22,South,182,0.0,-999.0,98,-99.99,,,-99.99,,2013-04-05 16:41:00,
2013-04-05 09:52:00,48.0,47.0,30.22,SE,129,0.0,-999.0,98,-99.99,,,-99.99,,2013-04-05 16:52:00,
2013-04-05 10:02:00,48.0,47.0,30.22,SE,130,0.0,-999.0,97,-99.99,,,-99.99,,2013-04-05 17:02:00,
2013-04-05 10:12:00,48.0,47.0,30.22,SE,130,0.0,-999.0,97,-99.99,,,-99.99,,2013-04-05 17:12:00,
2013-04-05 10:22:00,49.0,48.0,30.23,SSW,204,0.0,-999.0,97,-99.99,,,-99.99,,2013-04-05 17:22:00,
2013-04-05 10:32:00,49.0,48.0,30.23,SE,138,0.0,-999.0,97,-99.99,,,-99.99,,2013-04-05 17:32:00,
2013-04-05 10:44:00,49.0,48.0,30.23,SE,138,0.0,-999.0,97,-99.99,,,-99.99,,2013-04-05 17:44:00,
2013-04-05 10:52:00,48.0,47.0,30.24,South,174,1.0,-999.0,96,-99.99,,,-99.99,,2013-04-05 17:52:00,
2013-04-05 11:01:00,49.0,48.0,30.24,SSE,162,0.0,-999.0,97,-99.99,,,-99.99,,2013-04-05 18:01:00,
2013-04-05 11:12:00,49.0,48.0,30.24,SSE,162,0.0,-999.0,97,-99.99,,,-99.99,,2013-04-05 18:12:00,
2013-04-05 11:22:00,49.0,48.0,30.25,WSW,243,0.0,-999.0,96,-99.99,,,-99.99,,2013-04-05 18:22:00,
2013-04-05 11:32:00,49.0,48.0,30.25,WSW,243,0.0,-999.0,96,-99.99,,,-99.99,,2013-04-05 18:32:00,
2013-04-05 11:42:00,49.0,48.0,30.25,WSW,243,0.0,-999.0,96,-99.99,,,-99.99,,2013-04-05 18:42:00,
2013-04-05 11:52:00,48.0,47.0,30.26,SSW,199,1.0,-999.0,95,-99.99,,,-99.99,,2013-04-05 18:52:00,
2013-04-05 12:01:00,48.0,47.0,30.26,SSW,198,2.0,-999.0,96,-99.99,,,-99.99,,2013-04-05 19:01:00,
2013-04-05 12:12:00,48.0,47.0,30.26,SSW,198,2.0,-999.0,96,-99.99,,,-99.99,,2013-04-05 19:12:00,
2013-04-05 12:22:00,49.0,48.0,30.26,SSW,192,0.0,-999.0,96,-99.99,,,-99.99,,2013-04-05 19:22:00,
2013-04-05 12:31:00,49.0,48.0,30.26,SSW,192,0.0,-999.0,96,-99.99,,,-99.99,,2013-04-05 19:31:00,
2013-04-05 12:41:00,49.0,48.0,30.26,SSW,192,0.0,-999.0,96,-99.99,,,-99.99,,2013-04-05 19:41:00,
2013-04-05 12:52:00,49.0,48.0,30.26,SSW,192,0.0,-999.0,96,-99.99,,,-99.99,,2013-04-05 19:52:00,
2013-04-05 13:02:00,49.0,48.0,30.26,SSW,192,0.0,-999.0,96,-99.99,,,-99.99,,2013-04-05 20:02:00,
2013-04-05 13:22:00,51.0,50.0,30.24,ESE,103,0.0,-999.0,97,-99.99,,,-99.99,,2013-04-05 20:22:00,
2013-04-05 13:32:00,51.0,50.0,30.24,ESE,103,0.0,-999.0,97,-99.99,,,-99.99,,2013-04-05 20:32:00,
2013-04-05 13:42:00,51.0,50.0,30.24,ESE,103,0.0,-999.0,97,-99.99,,,-99.99,,2013-04-05 20:42:00,
2013-04-05 13:51:00,51.0,50.0,30.24,South,182,1.0,-999.0,95,-99.99,,,-99.99,,2013-04-05 20:51:00,
2013-04-05 14:02:00,51.0,49.0,30.24,SSE,163,0.0,-999.0,94,-99.99,,,-99.99,,2013-04-05 21:02:00,
2013-04-05 14:12:00,51.0,49.0,30.24,SSE,163,0.0,-999.0,94,-99.99,,,-99.99,,2013-04-05 21:12:00,
2013-04-05 14:22:00,50.0,49.0,30.24,SE,130,0.0,1.0,95,-99.99,,,-99.99,,2013-04-05 21:22:00,
2013-04-05 14:32:00,50.0,49.0,30.24,SSE,166,0.0,3.0,95,-99.99,,,-99.99,,2013-04-05 21:32:00,
2013-04-05 14:42:00,50.0,49.0,30.24,SSE,166,0.0,3.0,95,-99.99,,,-99.99,,2013-04-05 21:42:00,
2013-04-05 14:53:00,51.0,50.0,30.24,SSE,159,0.0,3.0,95,-99.99,,,-99.99,,2013-04-05 21:53:00,
2013-04-05 15:02:00,51.0,49.0,30.24,SSW,213,0.0,1.0,94,-99.99,,,-99.99,,2013-04-05 22:02:00,
2013-04-05 15:12:00,51.0,49.0,30.24,SSW,213,0.0,1.0,94,-99.99,,,-99.99,,2013-04-05 22:12:00,
2013-04-05 15:22:00,50.0,48.0,30.24,South,189,1.0,4.0,93,0.00,,,-99.99,,2013-04-05 22:22:00,
2013-04-05 15:32:00,50.0,48.0,30.24,SSW,209,0.0,4.0,92,0.00,,,-99.99,,2013-04-05 22:32:00,
2013-04-05 15:52:00,50.0,48.0,30.24,SSE,149,1.0,2.0,94,0.00,,,-99.99,,2013-04-05 22:52:00,
2013-04-05 16:02:00,51.0,49.0,30.24,WSW,249,1.0,3.0,93,0.00,,,-99.99,,2013-04-05 23:02:00,
2013-04-05 16:12:00,51.0,49.0,30.24,WSW,249,1.0,3.0,93,0.00,,,-99.99,,2013-04-05 23:12:00,
2013-04-05 16:22:00,51.0,48.0,30.24,SSW,210,0.0,3.0,90,0.00,,,-99.99,,2013-04-05 23:22:00,
2013-04-05 16:31:00,51.0,48.0,30.24,SSE,150,0.0,2.0,90,0.00,,,-99.99,,2013-04-05 23:31:00,
2013-04-05 16:42:00,51.0,48.0,30.24,SSE,150,0.0,2.0,90,0.00,,,-99.99,,2013-04-05 23:42:00,
2013-04-05 16:52:00,51.0,47.0,30.22,South,173,0.0,1.0,87,0.00,,,-99.99,,2013-04-05 23:52:00,
2013-04-05 17:02:00,51.0,47.0,30.21,SW,215,0.0,4.0,87,0.00,,,-99.99,,2013-04-06 00:02:00,
2013-04-05 17:12:00,51.0,47.0,30.21,SW,215,0.0,4.0,87,0.00,,,-99.99,,2013-04-06 00:12:00,
2013-04-05 17:22:00,51.0,48.0,30.22,SW,230,0.0,3.0,89,0.00,,,-99.99,,2013-04-06 00:22:00,
2013-04-05 17:32:00,51.0,48.0,30.22,SE,146,1.0,5.0,89,0.00,,,-99.99,,2013-04-06 00:32:00,
2013-04-05 17:42:00,51.0,48.0,30.22,SE,146,1.0,5.0,89,0.00,,,-99.99,,2013-04-06 00:42:00,
2013-04-05 17:52:00,51.0,48.0,30.22,SSE,165,0.0,3.0,90,0.00,,,-99.99,,2013-04-06 00:52:00,
2013-04-05 18:01:00,51.0,48.0,30.22,SW,231,1.0,4.0,90,0.00,,,-99.99,,2013-04-06 01:01:00,
2013-04-05 18:12:00,49.0,46.0,30.22,East,87,0.0,4.0,91,0.00,,,-99.99,,2013-04-06 01:12:00,
2013-04-05 18:22:00,49.0,46.0,30.22,East,87,0.0,4.0,91,0.00,,,-99.99,,2013-04-06 01:22:00,
2013-04-05 18:32:00,49.0,46.0,30.22,SE,128,1.0,9.0,91,0.00,,,-99.99,,2013-04-06 01:32:00,
2013-04-05 18:42:00,49.0,46.0,30.22,SE,128,1.0,9.0,91,0.00,,,-99.99,,2013-04-06 01:42:00,
2013-04-05 18:53:00,49.0,47.0,30.22,SSE,151,1.0,4.0,92,0.00,,,-99.99,,2013-04-06 01:53:00,
2013-04-05 19:01:00,49.0,47.0,30.22,SSW,196,1.0,3.0,92,0.00,,,-99.99,,2013-04-06 02:01:00,
2013-04-05 19:11:00,49.0,47.0,30.22,SSW,196,1.0,3.0,92,0.00,,,-99.99,,2013-04-06 02:11:00,
2013-04-05 19:22:00,48.0,46.0,30.22,SSW,195,1.0,6.0,93,0.00,,,-99.99,,2013-04-06 02:22:00,
2013-04-05 19:32:00,48.0,46.0,30.22,SSW,198,0.0,3.0,93,0.00,,,-99.99,,2013-04-06 02:32:00,
2013-04-05 19:42:00,48.0,46.0,30.22,SSW,198,0.0,3.0,93,0.00,,,-99.99,,2013-04-06 02:42:00,
2013-04-05 19:52:00,47.0,45.0,30.22,SSW,212,0.0,3.0,93,0.00,,,-99.99,,2013-04-06 02:52:00,
2013-04-05 20:01:00,47.0,45.0,30.22,SSE,165,0.0,3.0,94,0.00,,,-99.99,,2013-04-06 03:01:00,
2013-04-05 20:11:00,47.0,45.0,30.22,SSE,165,0.0,3.0,94,0.00,,,-99.99,,2013-04-06 03:11:00,
2013-04-05 20:21:00,47.0,45.0,30.21,South,186,1.0,4.0,94,0.00,,,-99.99,,2013-04-06 03:21:00,
2013-04-05 20:32:00,47.0,46.0,30.22,SSW,194,0.0,4.0,95,0.00,,,-99.99,,2013-04-06 03:32:00,
2013-04-05 20:42:00,47.0,46.0,30.22,SSW,194,0.0,4.0,95,0.00,,,-99.99,,2013-04-06 03:42:00,
2013-04-05 20:53:00,47.0,46.0,30.22,South,179,1.0,2.0,95,0.00,,,-99.99,,2013-04-06 03:53:00,
2013-04-05 21:03:00,47.0,46.0,30.22,South,185,0.0,2.0,95,0.00,,,-99.99,,2013-04-06 04:03:00,
2013-04-05 21:12:00,47.0,46.0,30.22,South,185,0.0,2.0,95,0.00,,,-99.99,,2013-04-06 04:12:00,
2013-04-05 21:22:00,47.0,46.0,30.23,SSW,212,0.0,3.0,95,0.00,,,-99.99,,2013-04-06 04:22:00,
2013-04-05 21:32:00,47.0,46.0,30.23,SE,137,1.0,4.0,95,0.00,,,-99.99,,2013-04-06 04:32:00,
2013-04-05 21:42:00,47.0,46.0,30.23,SE,137,1.0,4.0,95,0.00,,,-99.99,,2013-04-06 04:42:00,
2013-04-05 21:52:00,47.0,46.0,30.24,SSW,212,0.0,4.0,96,0.00,,,-99.99,,2013-04-06 04:52:00,
2013-04-05 22:01:00,47.0,46.0,30.24,SW,215,0.0,4.0,96,0.00,,,-99.99,,2013-04-06 05:01:00,
2013-04-05 22:11:00,47.0,46.0,30.24,SW,215,0.0,4.0,96,0.00,,,-99.99,,2013-04-06 05:11:00,
2013-04-05 22:22:00,47.0,46.0,30.25,South,189,1.0,3.0,96,0.00,,,-99.99,,2013-04-06 05:22:00,
2013-04-05 22:32:00,47.0,46.0,30.25,SSE,148,0.0,3.0,96,0.00,,,-99.99,,2013-04-06 05:32:00,
2013-04-05 22:42:00,47.0,46.0,30.25,SSE,148,0.0,3.0,96,0.00,,,-99.99,,2013-04-06 05:42:00,
2013-04-05 22:52:00,47.0,46.0,30.25,SSE,157,0.0,1.0,96,0.00,,,-99.99,,2013-04-06 05:52:00,
2013-04-05 23:02:00,47.0,46.0,30.25,SSE,161,0.0,2.0,96,0.00,,,-99.99,,2013-04-06 06:02:00,
2013-04-05 23:11:00,47.0,46.0,30.25,SSE,161,0.0,2.0,96,0.00,,,-99.99,,2013-04-06 06:11:00,
2013-04-05 23:22:00,47.0,46.0,30.24,South,184,0.0,0.0,96,0.00,,,-99.99,,2013-04-06 06:22:00,
2013-04-05 23:32:00,47.0,46.0,30.24,WSW,239,0.0,2.0,96,0.00,,,-99.99,,2013-04-06 06:32:00,
2013-04-05 23:42:00,47.0,46.0,30.24,WSW,239,0.0,2.0,96,0.00,,,-99.99,,2013-04-06 06:42:00,
2013-04-05 23:52:00,47.0,46.0,30.24,SSE,158,0.0,5.0,96,0.00,,,-99.99,,2013-04-06 06:52:00,